Weather History for KHBG - January, 2012

Change the Weather History Date:

Tuesday, January 3, 2012

  Actual Average Record
Temperature  
Mean Temperature 38 °F 49 °F  
Max Temperature 48 °F 60 °F 79 °F (1950)
Min Temperature 27 °F 38 °F 14 °F (1979)
Degree Days  
Heating Degree Days 27 16  
Month to date heating degree days 52 48  
Since 1 July heating degree days 796 833  
Cooling Degree Days 0 0  
Month to date cooling degree days 0 0  
Year to date cooling degree days 0 0  
Moisture  
Dew Point 13 °F    
Average Humidity 48    
Maximum Humidity 81    
Minimum Humidity 15    
Precipitation  
Precipitation 0.00 in 0.19 in 2.24 in (2015)
Month to date precipitation T 0.56  
Year to date precipitation T 0.56  
Sea Level Pressure  
Sea Level Pressure 30.50 in    
Wind  
Wind Speed 4 mph (NNW)    
Max Wind Speed 14 mph    
Max Gust Speed 17 mph    
Visibility 10 miles    
Events      
T = Trace of Precipitation, MM = Missing Value Source: NWS Daily Summary

Daily Weather History Graph

Daily Weather History Graph

Search for Another Location

Airport or City:

Trip Planner

Search our weather history database for the weather conditions in past years. The results will help you decide how hot, cold, wet, or windy it might be!

Date:

Astronomy

Jan. 03, 2012 Rise Set
Actual Time 6:56 AM CST 5:06 PM CST
Civil Twilight 6:29 AM CST 5:33 PM CST
Nautical Twilight 5:59 AM CST 6:03 PM CST
Astronomical Twilight 5:29 AM CST 6:32 PM CST
Moon 12:49 PM CST (1/3) 1:53 AM CST (1/3)
Length of Visible Light 11h 03m
Length of Day
10h 10m
Waxing Gibbous, 73% of the Moon is Illuminated
Jan 3
Waxing Gibbous
Jan 9
Full
Jan 16
Last Quarter
Jan 23
New
Jan 30
First Quarter

Hourly Weather History & Observations

Time (CST) Temp. Windchill Dew Point Humidity Pressure Visibility Wind Dir Wind Speed Gust Speed Precip Events Conditions
12:53 AM 35.1 °F 31.0 °F 19.0 °F 52% 30.50 in 10.0 mi NW 4.6 mph - N/A   Clear
1:53 AM 35.1 °F 32.2 °F 18.0 °F 50% 30.51 in 10.0 mi NNW 3.5 mph - N/A   Clear
2:53 AM 34.0 °F 28.8 °F 18.0 °F 52% 30.53 in 10.0 mi NNW 5.8 mph - N/A   Clear
4:53 AM 30.9 °F 24.3 °F 15.1 °F 52% 30.55 in 10.0 mi NNW 6.9 mph - N/A   Clear
5:53 AM 28.9 °F 23.9 °F 15.1 °F 56% 30.55 in 10.0 mi NW 4.6 mph - N/A   Clear
6:53 AM 30.0 °F 25.2 °F 12.9 °F 49% 30.56 in 10.0 mi NNW 4.6 mph - N/A   Clear
8:53 AM 35.1 °F 31.0 °F 12.9 °F 40% 30.61 in 10.0 mi North 4.6 mph - N/A   Clear
9:53 AM 37.9 °F 30.9 °F 8.1 °F 29% 30.61 in 10.0 mi NE 10.4 mph - N/A   Clear
10:53 AM 41.0 °F 34.7 °F 5.0 °F 23% 30.57 in 10.0 mi NNE 10.4 mph - N/A   Clear
11:53 AM 43.0 °F 37.7 °F 3.0 °F 19% 30.55 in 10.0 mi NNE 9.2 mph - N/A   Clear
12:53 PM 46.0 °F 40.6 °F 3.9 °F 18% 30.51 in 10.0 mi North 11.5 mph 16.1 mph N/A   Clear
1:53 PM 46.9 °F - 1.0 °F 15% 30.48 in 10.0 mi NW 8.1 mph - N/A   Clear
2:53 PM 46.9 °F - 1.9 °F 16% 30.47 in 10.0 mi NW 6.9 mph - N/A   Clear
3:53 PM 48.0 °F - 3.0 °F 16% 30.47 in 10.0 mi NNW 3.5 mph - N/A   Clear
4:53 PM 45.0 °F 43.5 °F 8.1 °F 22% 30.46 in 10.0 mi NNE 3.5 mph - N/A   Clear
5:53 PM 37.0 °F - 18.0 °F 46% 30.46 in 10.0 mi Calm Calm - N/A   Clear
6:53 PM 33.1 °F - 21.9 °F 64% 30.45 in 10.0 mi Calm Calm - N/A   Clear
7:53 PM 30.9 °F - 23.0 °F 72% 30.45 in 10.0 mi Calm Calm - N/A   Clear
8:53 PM 28.9 °F - 21.0 °F 72% 30.44 in 10.0 mi Calm Calm - N/A   Clear
9:53 PM 28.0 °F - 21.9 °F 78% 30.45 in 10.0 mi Calm Calm - N/A   Clear
10:53 PM 27.0 °F - 21.0 °F 78% 30.43 in 10.0 mi Calm Calm - N/A   Clear
11:53 PM 28.0 °F - 21.0 °F 75% 30.43 in 10.0 mi Calm Calm - N/A   Clear